User: anonymous   Login
Location: *
(45.8589°N, 4.7139°E)
Time: 02:42:04
(UTC+00:00)
Language:

SL-4 R/B - Orbit

View from above orbital plane
View from above orbital plane
View from above satellite
View from above satellite

Ground track
Ground track

The orbit data is extracted from the following two-line orbital elements,

1 39679U 14021B   20192.46621795 -.00000152  00000-0  11289-4 0  9990
2 39679  51.6169   0.6268 0172201  25.6919 335.2482 15.06439731342815
Epoch (UTC): 10 July 2020 11:11:21
Eccentricity: 0.0172201
inclination: 51.6169°
perigee height: 428 km
apogee height: 666 km
right ascension of ascending node: 0.6268°
argument of perigee: 25.6919°
revolutions per day: 15.06439731
mean anomaly at epoch: 335.2482°
orbit number at epoch: 34281

The dashed part of the orbit path shows where the satellite is in the earth's shadow,  

DLR